Wuhan Tianhe International Airport

Airport
ICAO code: 
ZHHH
IATA Code: 
WUH
Summary
ICAO Region: 
APAC
Territory: 
Location: 
Wuhan, Hubei
Serving: 
Wuhan
Elevation: 
113 ft
Coordinates: 
Aerial View: 
30° 47' 1" N, 114° 12' 29.002" E
Metar
Observation
ZHHH 210500Z 05005MPS 1600 -RA BR FEW006 OVC030 06/04 Q1022 NOSIG
Station
Wuhan
Date/Time
2022-01-21 05:00:00
Wind direction
50°
Lowest cloud amount
few clouds
Temperature
6°C
Dew point
4°C
Humidity
86%
QNH
1022 hPa
Weather condition
n/a

Description

Wuhan Tianhe International Airport serves Wuhan, the capital of the Hubei Province, China. The airport is located around 26 km to the north of Wuhan city center.

Climatology

Humid subtropical climate (Köppen climate classification Cfa.) Hot muggy summers with frequent thunderstorms. Winters are mild and precipitation during this season comes from mid-latitude cyclones. This climate type is quite common on the east coasts of continents.

Runways

Designator Length Width Surface Rops
4/22 3400 45 CON Yes/Yes
Airport map: 
Aerial View: 

SKYbrary Partners:

Safety knowledge contributed by: